Location: Newark
(54.6833°N, 25.2833°E)
Time: 00:16:08
(UTC+00:00)

Tiros 1 despin weight - Pass Details

Date: 19 November 2019
Orbit: 594 x 642 km, 48.2° (Epoch: 10 December)

Event Time Altitude Azimuth Distance (km) Brightness Sun altitude
Rises 15:59:03 0° 269° (W) 2,846 ? -15.1°
Reaches altitude 10° 16:01:37 10° 256° (WSW) 1,948 ? -15.4°
Maximum altitude 16:05:17 25° 201° (SSW) 1,226 ? -15.9°
Drops below altitude 10° 16:08:59 10° 146° (SE) 1,966 ? -16.5°
Enters shadow 16:09:35 - 142° (SE) 2,166 ? -16.6°
Sets 16:11:36 0° 133° (SE) 2,879 - -16.8°
